Location: Estes Par
(40.3770°N, 105.5210°W)
Time: 23:13:42
(UTC-06:00)

Hubble Space Telescope - Pass Details

Date: 07 October 2017
Orbit: 537 x 541 km, 28.5° (Epoch: 19 October)

Event Time Altitude Azimuth Distance (km) Brightness Sun altitude
Exits shadow 05:12:03 15° 173° (S) 1,479 2.9 -22.2°
Drops below altitude 10° 05:14:01 10° 144° (SE) 1,783 3.7 -21.8°
Sets 05:17:01 0° 122° (ESE) 2,674 5.0 -21.3°
